Find Starlink 30576

NORAD ID: 58065 Int'l Des: 2023-158 Owner: SPXS Country: US Constellation: starlink operational
LEOCIRCULAR

現在のビュー

3D地球を読み込み中...

About Starlink 30576

Starlink 30576 (NORAD 58065) is a starlink constellation satellite (v2 mini) launched Oct 13, 2023 by SPXS of US. It operates in LEO, CIRCULAR orbit with a mass of 730.00 kg.

次回通過

Passes for default location (London). Set your location on the main map for personalized predictions.

高度履歴

Loading altitude history...

軌道要素

1 58065U 23158Q 26229.30172154 -.00000284 00000-0 -80058-6 0 9990
2 58065 43.0035 199.9924 0001452 276.6932 83.3754 15.27576611158130
Epoch: Aug 17, 2026 • Age: 7 hours

現在のステータス

高度 488.0 km
遠地点 / 近地点 N/A
速度 7.62 km/s
衛星直下点 -22.76°S, 137.9°W
打ち上げ日 Oct 13, 2023
運用期間 2.8 years
タイプ internet

技術仕様

分類 Payload
質量 730.00 kg
乾燥質量 700.00 kg
総質量 730.00 kg
長さ 0.30 m
直径 4.10 m
スパン 29.00 m
形状 Box + pan
製造者 SPXS
バスタイプ Starlink V2M
フェーズステータス In Orbit
所有者/国 SPXS/US

Most Searched